• In Uzbekistan
  • List of Countries
  • For 7 days
  • Water Temperature
  • Satellite Maps
  • Weather Map
  • Weather Widgets
  • user-avatar
    Login

    Hourly Weather Baraki Barak

    Today, 17 July, Wednesday

    Time Temperature Precipitation Wind Pressure Humidity
    00:00 +24°C° 0 mm 1 mps 597 mmHg 44%
    01:00 +24°C° 0 mm 1 mps 597 mmHg 47%
    02:00 +23°C° 0 mm 1 mps 597 mmHg 50%
    03:00 +20°C° 0 mm 0 mps 596 mmHg 50%
    04:00 +19°C° 0 mm 0 mps 596 mmHg 51%
    05:00 +19°C° 0 mm 0 mps 596 mmHg 54%
    06:00 +22°C° 0 mm 1 mps 597 mmHg 48%
    07:00 +24°C° 0 mm 1 mps 598 mmHg 41%
    08:00 +26°C° 0 mm 1 mps 598 mmHg 35%
    09:00 +27°C° 0 mm 1 mps 599 mmHg 28%
    10:00 +29°C° 0 mm 1 mps 599 mmHg 22%
    11:00 +30°C° 0 mm 1 mps 600 mmHg 16%
    12:00 +31°C° 0 mm 2 mps 600 mmHg 14%
    13:00 +34°C° 0 mm 2 mps 600 mmHg 11%
    14:00 +35°C° 0 mm 2 mps 599 mmHg 9%
    15:00 +35°C° 0 mm 3 mps 600 mmHg 8%
    16:00 +36°C° 0 mm 3 mps 600 mmHg 8%
    17:00 +36°C° 0 mm 3 mps 600 mmHg 7%
    18:00 +34°C° 0 mm 4 mps 599 mmHg 12%
    19:00 +32°C° 0 mm 4 mps 599 mmHg 16%
    20:00 +30°C° 0 mm 5 mps 598 mmHg 21%
    21:00 +28°C° 0 mm 4 mps 598 mmHg 30%
    22:00 +26°C° 0 mm 3 mps 598 mmHg 39%
    23:00 +25°C° 0 mm 1 mps 598 mmHg 48%

    Tomorrow, 18 July, Thursday

    Time Temperature Precipitation Wind Pressure Humidity
    00:00 +24°C° 0 mm 1 mps 597 mmHg 50%
    01:00 +23°C° 0 mm 1 mps 597 mmHg 52%
    02:00 +21°C° 0 mm 0 mps 596 mmHg 54%
    03:00 +20°C° 0 mm 0 mps 596 mmHg 56%
    04:00 +19°C° 0 mm 0 mps 596 mmHg 58%
    05:00 +19°C° 0 mm 0 mps 595 mmHg 60%
    06:00 +22°C° 0 mm 1 mps 596 mmHg 53%
    07:00 +24°C° 0 mm 1 mps 597 mmHg 46%
    08:00 +25°C° 0 mm 1 mps 598 mmHg 39%
    09:00 +27°C° 0 mm 1 mps 598 mmHg 31%
    10:00 +29°C° 0 mm 1 mps 599 mmHg 24%
    11:00 +30°C° 0 mm 1 mps 599 mmHg 16%
    12:00 +31°C° 0 mm 2 mps 599 mmHg 14%
    13:00 +34°C° 0 mm 2 mps 599 mmHg 11%
    14:00 +35°C° 0 mm 2 mps 599 mmHg 9%
    15:00 +35°C° 0 mm 3 mps 599 mmHg 9%
    16:00 +36°C° 0 mm 3 mps 599 mmHg 9%
    17:00 +36°C° 0 mm 3 mps 599 mmHg 8%
    18:00 +34°C° 0 mm 3 mps 599 mmHg 11%
    19:00 +31°C° 0 mm 3 mps 598 mmHg 13%
    20:00 +30°C° 0 mm 3 mps 598 mmHg 15%
    21:00 +28°C° 0 mm 2 mps 598 mmHg 23%
    22:00 +27°C° 0 mm 2 mps 598 mmHg 32%
    23:00 +25°C° 0 mm 1 mps 598 mmHg 40%

    Day after tomorrow, 19 July, Friday

    Time Temperature Precipitation Wind Pressure Humidity
    00:00 +24°C° 0 mm 1 mps 597 mmHg 42%
    01:00 +24°C° 0 mm 1 mps 597 mmHg 45%
    02:00 +21°C° 0 mm 0 mps 596 mmHg 47%
    03:00 +20°C° 0 mm 0 mps 596 mmHg 49%
    04:00 +20°C° 0 mm 0 mps 596 mmHg 52%
    05:00 +19°C° 0 mm 0 mps 596 mmHg 54%
    06:00 +21°C° 0 mm 0 mps 597 mmHg 49%
    07:00 +22°C° 0 mm 0 mps 597 mmHg 43%
    08:00 +26°C° 0 mm 1 mps 598 mmHg 37%
    09:00 +28°C° 0 mm 1 mps 599 mmHg 31%
    10:00 +29°C° 0 mm 1 mps 599 mmHg 25%
    11:00 +31°C° 0 mm 1 mps 600 mmHg 19%
    12:00 +32°C° 0 mm 2 mps 600 mmHg 16%
    13:00 +34°C° 0 mm 2 mps 600 mmHg 13%
    14:00 +36°C° 0 mm 2 mps 600 mmHg 10%
    15:00 +36°C° 0 mm 3 mps 600 mmHg 10%
    16:00 +36°C° 0 mm 3 mps 600 mmHg 9%
    17:00 +37°C° 0 mm 3 mps 600 mmHg 8%
    18:00 +35°C° 0 mm 3 mps 599 mmHg 13%
    19:00 +32°C° 0 mm 2 mps 599 mmHg 18%
    20:00 +30°C° 0 mm 2 mps 599 mmHg 22%
    21:00 +29°C° 0 mm 2 mps 599 mmHg 28%
    22:00 +27°C° 0 mm 2 mps 599 mmHg 34%
    23:00 +26°C° 0 mm 1 mps 599 mmHg 39%

    20 July, Saturday

    Time Temperature Precipitation Wind Pressure Humidity
    00:00 +25°C° 0 mm 1 mps 598 mmHg 44%
    01:00 +25°C° 0 mm 1 mps 598 mmHg 49%
    02:00 +24°C° 0 mm 1 mps 597 mmHg 54%
    03:00 +23°C° 0 mm 1 mps 597 mmHg 57%
    04:00 +20°C° 0 mm 0 mps 597 mmHg 59%
    05:00 +20°C° 0 mm 0 mps 597 mmHg 62%
    06:00 +21°C° 0 mm 0 mps 597 mmHg 55%
    07:00 +25°C° 0 mm 1 mps 598 mmHg 49%
    08:00 +27°C° 0 mm 1 mps 599 mmHg 42%
    09:00 +28°C° 0 mm 1 mps 600 mmHg 34%
    10:00 +30°C° 0 mm 1 mps 600 mmHg 26%
    11:00 +32°C° 0 mm 2 mps 601 mmHg 19%
    12:00 +34°C° 0 mm 2 mps 601 mmHg 15%
    13:00 +35°C° 0 mm 2 mps 601 mmHg 12%
    14:00 +37°C° 0 mm 3 mps 601 mmHg 9%
    15:00 +37°C° 0 mm 3 mps 601 mmHg 8%
    16:00 +37°C° 0 mm 4 mps 601 mmHg 8%
    17:00 +37°C° 0 mm 4 mps 600 mmHg 7%
    18:00 +35°C° 0 mm 4 mps 600 mmHg 9%
    19:00 +33°C° 0 mm 4 mps 600 mmHg 12%
    20:00 +30°C° 0 mm 4 mps 599 mmHg 14%
    21:00 +29°C° 0 mm 3 mps 599 mmHg 17%
    22:00 +27°C° 0 mm 2 mps 599 mmHg 21%
    23:00 +26°C° 0 mm 1 mps 598 mmHg 24%

    21 July, Sunday

    Time Temperature Precipitation Wind Pressure Humidity
    00:00 +25°C° 0 mm 1 mps 598 mmHg 24%
    01:00 +24°C° 0 mm 1 mps 597 mmHg 24%
    02:00 +23°C° 0 mm 1 mps 597 mmHg 24%
    03:00 +23°C° 0 mm 1 mps 596 mmHg 24%
    04:00 +22°C° 0 mm 1 mps 596 mmHg 24%
    05:00 +21°C° 0 mm 1 mps 596 mmHg 24%
    06:00 +23°C° 0 mm 1 mps 597 mmHg 21%
    07:00 +25°C° 0 mm 1 mps 598 mmHg 18%
    08:00 +28°C° 0 mm 1 mps 599 mmHg 15%
    09:00 +29°C° 0 mm 2 mps 599 mmHg 14%
    10:00 +31°C° 0 mm 2 mps 599 mmHg 12%
    11:00 +32°C° 0 mm 2 mps 600 mmHg 10%
    12:00 +34°C° 0 mm 3 mps 600 mmHg 9%
    13:00 +36°C° 0 mm 3 mps 600 mmHg 9%
    14:00 +37°C° 0 mm 3 mps 600 mmHg 8%
    15:00 +37°C° 0 mm 4 mps 600 mmHg 8%
    16:00 +37°C° 0 mm 5 mps 600 mmHg 8%
    17:00 +37°C° 0 mm 5 mps 599 mmHg 8%
    18:00 +35°C° 0 mm 5 mps 599 mmHg 9%
    19:00 +33°C° 0 mm 5 mps 599 mmHg 11%
    20:00 +30°C° 0 mm 5 mps 598 mmHg 12%
    21:00 +29°C° 0 mm 4 mps 598 mmHg 13%
    22:00 +27°C° 0 mm 3 mps 598 mmHg 14%
    23:00 +26°C° 0 mm 2 mps 597 mmHg 15%

    22 July, Monday

    Time Temperature Precipitation Wind Pressure Humidity
    00:00 +25°C° 0 mm 2 mps 597 mmHg 17%
    01:00 +24°C° 0 mm 1 mps 596 mmHg 18%
    02:00 +23°C° 0 mm 1 mps 596 mmHg 19%
    03:00 +23°C° 0 mm 1 mps 596 mmHg 20%
    04:00 +22°C° 0 mm 1 mps 595 mmHg 21%
    05:00 +21°C° 0 mm 1 mps 595 mmHg 22%
    06:00 +23°C° 0 mm 1 mps 596 mmHg 20%
    07:00 +25°C° 0 mm 1 mps 597 mmHg 18%
    08:00 +28°C° 0 mm 1 mps 598 mmHg 16%
    09:00 +29°C° 0 mm 2 mps 598 mmHg 14%
    10:00 +31°C° 0 mm 2 mps 599 mmHg 13%
    11:00 +33°C° 0 mm 3 mps 599 mmHg 12%
    12:00 +34°C° 0 mm 3 mps 599 mmHg 10%
    13:00 +35°C° 0 mm 3 mps 599 mmHg 9%
    14:00 +36°C° 0 mm 3 mps 599 mmHg 8%
    15:00 +36°C° 0 mm 4 mps 599 mmHg 8%
    16:00 +37°C° 0 mm 4 mps 598 mmHg 9%
    17:00 +37°C° 0 mm 5 mps 598 mmHg 9%
    18:00 +34°C° 0 mm 5 mps 598 mmHg 12%
    19:00 +32°C° 0 mm 5 mps 597 mmHg 16%
    20:00 +29°C° 0 mm 5 mps 596 mmHg 20%
    21:00 +28°C° 0 mm 3 mps 596 mmHg 22%
    22:00 +27°C° 0 mm 2 mps 596 mmHg 25%
    23:00 +25°C° 0 mm 1 mps 596 mmHg 27%
    Show more